User: anonymous   Login
Location: Eppenbrunn
(49.1158°N, 7.5601°E)
Time: 15:56:39
(UTC+00:00)
Language:

Cosmos 2233 Rocket - Orbit

View from above orbital plane
View from above orbital plane
View from above satellite
View from above satellite

Ground track
Ground track

The orbit data is extracted from the following two-line orbital elements,

1 22488U 93008B   21163.90237572  .00000052  00000-0  36842-4 0  9996
2 22488  82.9440  74.3665 0026757 101.9943 328.1074 13.77734893424555
Epoch (UTC): 12 June 2021 21:39:25
Eccentricity: 0.0026757
inclination: 82.9440°
perigee height: 952 km
apogee height: 991 km
right ascension of ascending node: 74.3665°
argument of perigee: 101.9943°
revolutions per day: 13.77734893
mean anomaly at epoch: 328.1074°
orbit number at epoch: 42455

The dashed part of the orbit path shows where the satellite is in the earth's shadow,  

DLR